[[{"header":{"parameterUnit":"m.s-1","parameterCategory":1,"la1":30.2991,"la2":30.254,"lo1":-89.0895,"lo2":-89.0444,"dy":0.0017,"dx":0.0017,"nx":28,"ny":28,"refTime":"2024-02-16T03:00:00:Z","depth":0,"parameterNumber":2,"parameterNumberName":"U-component_of_WINDS"},"data":[0,0,0,0,0,0,0,0,0,0,0,0,0,0,0,0,0,0,0,0,0,0,0,0,0,0,0,0,0,0,0,0,0,0,0,0,0,0,0,0,0,0,0,0,0,0,0,0,0,0,0,0,0,0,0,0,0,0,-0.1077,-0.1077,0,-0.1072,-0.1072,-0.1072,-0.1068,-0.1068,-0.1068,-0.1068,-0.1064,-0.1064,-0.1064,0,0,0,0,0,0,0,0,0,0,0,0,0,-0.1086,-0.1086,-0.1077,-0.1077,-0.1077,-0.1072,-0.1072,-0.1072,-0.1068,-0.1068,-0.1068,-0.1068,-0.1064,-0.1064,-0.1063,0,0,0,0,0,0,0,0,0,0,0,0,0,-0.1082,-0.1086,-0.1077,-0.1075,-0.1074,-0.1072,-0.1072,-0.1072,-0.1068,-0.1068,-0.1068,-0.1068,-0.1064,-0.1064,-0.1063,-0.1064,0,0,-0.1063,-0.1063,0,0,0,0,0,0,0,0,-0.1082,-0.1081,-0.1075,-0.1075,-0.1074,-0.1071,-0.1074,-0.1069,-0.1068,-0.1071,-0.1068,-0.1068,-0.1066,-0.1066,-0.1065,-0.1063,-0.1063,-0.1063,-0.1063,-0.1063,-0.1063,0,0,0,0,0,0,0,-0.1082,-0.1082,-0.1075,-0.1075,-0.1075,-0.1075,-0.1074,-0.1073,-0.1069,-0.107,-0.107,-0.107,-0.1066,-0.1065,-0.1065,-0.1063,-0.1063,-0.1063,-0.1063,-0.1063,-0.1064,-0.1064,0,0,0,0,0,0,-0.1083,-0.1082,-0.1075,-0.1075,-0.1078,-0.1074,-0.1074,-0.1072,-0.1069,-0.1068,-0.107,-0.1069,-0.1065,-0.1065,-0.1065,-0.1066,-0.1063,-0.1063,-0.1063,-0.1064,-0.1064,-0.1064,0,0,0,0,0,0,-0.1083,-0.1082,-0.1076,-0.1078,-0.1078,-0.1074,-0.1073,-0.1072,-0.1071,-0.1068,-0.1068,-0.1069,-0.1065,-0.1065,-0.1064,-0.1066,-0.1063,-0.1063,-0.1064,-0.1064,-0.1064,-0.1068,0,0,0,0,0,0,-0.1083,-0.1082,-0.1082,-0.1078,-0.1077,-0.1075,-0.1073,-0.1072,-0.1071,-0.107,-0.1068,-0.1067,-0.1065,-0.1065,-0.1064,-0.1065,-0.1063,-0.1063,-0.1064,-0.1064,-0.1067,-0.1068,-0.1068,0,0,0,0,0,-0.1084,-0.1082,-0.1082,-0.1081,-0.1076,-0.1075,-0.1074,-0.1072,-0.1071,-0.1071,-0.1069,-0.1067,-0.1066,-0.1065,-0.1064,-0.1065,-0.1063,-0.1064,-0.1064,-0.1067,-0.1068,-0.1068,0,0,0,0,0,0,-0.1086,-0.1082,-0.1081,-0.1079,-0.1077,-0.1074,-0.1073,-0.1072,-0.1071,-0.1071,-0.1068,-0.1068,-0.1068,-0.1066,-0.1065,-0.1066,-0.1064,-0.1065,-0.1067,-0.1068,-0.1068,-0.1068,-0.1062,0,0,0,0,0,-0.1086,-0.1084,-0.1081,-0.108,-0.1079,-0.1077,-0.1076,-0.1074,-0.1072,-0.1072,-0.107,-0.1069,-0.1068,-0.1068,-0.1067,-0.1067,-0.1068,-0.1068,-0.1069,-0.1069,-0.1069,-0.1071,-0.1072,-0.1065,-0.1065,-0.1065,0,0,-0.1086,-0.1084,-0.1083,-0.108,-0.1079,-0.1078,-0.1076,-0.1075,-0.1075,-0.1072,-0.1071,-0.107,-0.1069,-0.1069,-0.1069,-0.1068,-0.1071,-0.1069,-0.107,-0.107,-0.1071,-0.1072,-0.1073,-0.1065,-0.1065,-0.1065,0,0,-0.1086,-0.1084,-0.1083,-0.1082,-0.1081,-0.1079,-0.1079,-0.1077,-0.1076,-0.1076,-0.1074,-0.1075,-0.1073,-0.1073,-0.1072,-0.1075,-0.1074,-0.1075,-0.1077,-0.1079,-0.108,-0.108,-0.1082,-0.1083,-0.1075,-0.1075,-0.1075,0,-0.1087,-0.1085,-0.1083,-0.1083,-0.1082,-0.108,-0.108,-0.1079,-0.1077,-0.1077,-0.1076,-0.1076,-0.1075,-0.1076,-0.1077,-0.1076,-0.1077,-0.1075,-0.108,-0.108,-0.1081,-0.1083,-0.1083,-0.1075,-0.1075,-0.1075,-0.1075,0,-0.1087,-0.1086,-0.1086,-0.1084,-0.1084,-0.1083,-0.1082,-0.1082,-0.1082,-0.1081,-0.1082,-0.1081,-0.108,-0.108,-0.1079,-0.1082,-0.1082,-0.108,-0.1078,-0.1082,-0.1084,-0.1084,-0.1076,-0.1076,-0.1076,-0.1076,0,0,-0.1086,-0.1086,-0.1086,-0.1086,-0.1085,-0.1084,-0.1085,-0.1085,-0.1086,-0.1085,-0.1086,-0.1086,-0.1085,-0.1085,-0.1084,-0.1086,-0.109,-0.1084,-0.1084,-0.1086,-0.1094,-0.1096,-0.1096,-0.1089,-0.1089,-0.1089,-0.1095,0,-0.1087,-0.1087,-0.1087,-0.1087,-0.1087,-0.1087,-0.1088,-0.1088,-0.1087,-0.1088,-0.1088,-0.1089,-0.1087,-0.1087,-0.1089,-0.1089,-0.1091,-0.1088,-0.1091,-0.1091,-0.1091,-0.1097,-0.1098,-0.1103,-0.1095,-0.1096,-0.1096,0,-0.1087,-0.1087,-0.1088,-0.1089,-0.1089,-0.109,-0.1091,-0.1091,-0.1092,-0.1092,-0.1093,-0.1092,-0.1094,-0.1092,-0.1095,-0.1093,-0.1095,-0.1095,-0.1095,-0.1096,-0.1094,-0.1098,-0.1104,-0.1105,-0.1097,-0.1096,-0.1096,0,-0.1088,-0.1089,-0.109,-0.109,-0.109,-0.1091,-0.1092,-0.1092,-0.1093,-0.1094,-0.1095,-0.1096,-0.1097,-0.1099,-0.1099,-0.1098,-0.1103,-0.1101,-0.1104,-0.1104,-0.1105,-0.1105,-0.1112,-0.1105,-0.1105,-0.1105,-0.1105,0,-0.1089,-0.109,-0.109,-0.1091,-0.1093,-0.1093,-0.1094,-0.1095,-0.1096,-0.1098,-0.1097,-0.1099,-0.1099,-0.1101,-0.1102,-0.1105,-0.1105,-0.1106,-0.1106,-0.1106,-0.1106,-0.1107,-0.1107,-0.1105,-0.1105,-0.1105,-0.1105,0,-0.109,-0.109,-0.1091,-0.1093,-0.1093,-0.1094,-0.1096,-0.1097,-0.1098,-0.11,-0.1101,-0.1102,-0.1104,-0.1105,-0.1108,-0.1108,-0.1113,-0.1112,-0.1112,-0.1112,-0.1116,-0.1116,-0.1124,-0.1125,-0.1117,-0.1117,-0.1117,0,-0.109,-0.1091,-0.1093,-0.1094,-0.1095,-0.1096,-0.1097,-0.1098,-0.1099,-0.1102,-0.1103,-0.1106,-0.1108,-0.1113,-0.1114,-0.1117,-0.1117,-0.112,-0.1117,-0.1118,-0.1118,-0.1118,-0.1119,-0.112,-0.112,-0.112,-0.112,0,-0.1091,-0.1092,-0.1093,-0.1096,-0.1097,-0.1099,-0.1101,-0.1102,-0.1103,-0.1105,-0.1108,-0.111,-0.1114,-0.1117,-0.112,-0.1121,-0.1122,-0.1121,-0.1122,-0.1122,-0.1123,-0.1123,-0.1114,-0.1121,-0.1121,-0.1121,-0.1121,-0.1121,-0.1092,-0.1094,-0.1096,-0.1098,-0.11,-0.1102,-0.1104,-0.1105,-0.1108,-0.1111,-0.1112,-0.1115,-0.1118,-0.1123,-0.1124,-0.1128,-0.1127,-0.1128,-0.1129,-0.1129,-0.113,-0.1122,-0.1128,-0.1128,-0.1128,-0.1128,-0.1128,0,-0.1094,-0.1096,-0.1098,-0.1101,-0.1103,-0.1104,-0.1106,-0.1108,-0.1112,-0.1114,-0.1117,-0.1121,-0.1125,-0.1128,-0.1132,-0.1134,-0.1134,-0.1135,-0.1135,-0.1136,-0.113,-0.1129,-0.1135,-0.1135,-0.1135,-0.1135,-0.1135,-0.1135,-0.1095,-0.1098,-0.1099,-0.1104,-0.1106,-0.111,-0.1111,-0.1114,-0.1116,-0.1121,-0.1125,-0.1126,-0.113,-0.1134,-0.1138,-0.1139,-0.1141,-0.1142,-0.1143,-0.1137,-0.1136,-0.1135,-0.1135,-0.1142,-0.1142,-0.1149,-0.1149,-0.1149]},{"header":{"parameterUnit":"m.s-1","parameterCategory":1,"la1":30.2991,"la2":30.254,"lo1":-89.0895,"lo2":-89.0444,"dy":0.0017,"dx":0.0017,"nx":28,"ny":28,"refTime":"2024-02-16T03:00:00:Z","depth":0,"parameterNumber":3,"parameterNumberName":"V-component_of_WINDS"},"data":[0,0,0,0,0,0,0,0,0,0,0,0,0,0,0,0,0,0,0,0,0,0,0,0,0,0,0,0,0,0,0,0,0,0,0,0,0,0,0,0,0,0,0,0,0,0,0,0,0,0,0,0,0,0,0,0,0,0,2.0671,2.0671,0,2.0665,2.0665,2.0665,2.0639,2.0639,2.0638,2.0638,2.0631,2.0631,2.0632,0,0,0,0,0,0,0,0,0,0,0,0,0,2.0661,2.0661,2.0671,2.0671,2.0671,2.0665,2.0665,2.0664,2.0639,2.0639,2.0638,2.0637,2.0631,2.0631,2.0632,0,0,0,0,0,0,0,0,0,0,0,0,0,2.0661,2.0661,2.0671,2.0658,2.0656,2.0665,2.0665,2.0664,2.064,2.0639,2.0638,2.0637,2.0631,2.0631,2.0632,2.0653,0,0,2.0634,2.0634,0,0,0,0,0,0,0,0,2.0661,2.0661,2.066,2.0659,2.0657,2.0652,2.0659,2.066,2.064,2.0646,2.0638,2.0637,2.0639,2.0639,2.0639,2.0652,2.0652,2.0634,2.0634,2.0634,2.0634,0,0,0,0,0,0,0,2.0661,2.0662,2.0668,2.066,2.0658,2.0652,2.0651,2.0659,2.0647,2.0645,2.0644,2.0643,2.0638,2.0639,2.0639,2.0652,2.0634,2.0634,2.0634,2.0635,2.0681,2.0681,0,0,0,0,0,0,2.0663,2.0662,2.0669,2.0668,2.0657,2.0653,2.0652,2.0654,2.0647,2.0645,2.0644,2.0642,2.0638,2.0638,2.0639,2.0662,2.0634,2.0635,2.0635,2.068,2.0681,2.0682,0,0,0,0,0,0,2.0663,2.0664,2.0669,2.0665,2.0665,2.0654,2.0657,2.0655,2.0656,2.0646,2.0644,2.0647,2.0638,2.0638,2.0649,2.0661,2.0635,2.0635,2.0679,2.068,2.0681,2.0708,0,0,0,0,0,0,2.0663,2.0664,2.0672,2.0665,2.0665,2.068,2.0658,2.0655,2.0657,2.0654,2.0648,2.0647,2.0637,2.0648,2.065,2.0661,2.0636,2.0677,2.0679,2.0681,2.0706,2.071,2.0714,0,0,0,0,0,2.0663,2.068,2.0673,2.0673,2.0675,2.0681,2.0681,2.0669,2.0658,2.0665,2.0659,2.0647,2.066,2.065,2.0651,2.0663,2.0677,2.0679,2.0681,2.0704,2.0709,2.0714,0,0,0,0,0,0,2.0689,2.0679,2.067,2.0686,2.0684,2.0676,2.0686,2.0675,2.0676,2.0674,2.066,2.0659,2.0672,2.0669,2.0658,2.0682,2.0666,2.0668,2.0684,2.0688,2.0692,2.0692,2.0636,0,0,0,0,0,2.0697,2.0702,2.0693,2.0708,2.0707,2.0697,2.0699,2.069,2.0688,2.0687,2.0681,2.0679,2.0683,2.0686,2.0688,2.0706,2.0704,2.0714,2.0718,2.0721,2.0723,2.0732,2.0736,2.0688,2.0688,2.0688,0,0,2.0713,2.0708,2.0712,2.0713,2.0711,2.0717,2.0696,2.0704,2.0708,2.0688,2.0698,2.0694,2.0691,2.0705,2.0711,2.0703,2.0736,2.0724,2.0727,2.0727,2.0734,2.0739,2.0743,2.069,2.0689,2.0689,0,0,2.0744,2.0742,2.0753,2.0751,2.0747,2.074,2.0743,2.0736,2.0733,2.0743,2.0728,2.0732,2.0739,2.0737,2.0737,2.0767,2.0756,2.0769,2.0788,2.0797,2.08,2.0804,2.0814,2.0817,2.0771,2.0771,2.0771,0,2.0764,2.0773,2.076,2.0768,2.0769,2.0751,2.0763,2.0761,2.0759,2.0759,2.075,2.0758,2.0754,2.0767,2.0775,2.0775,2.0778,2.0769,2.0801,2.0804,2.0807,2.0816,2.082,2.0773,2.0772,2.0772,2.0772,0,2.0797,2.0803,2.0813,2.0811,2.0812,2.0822,2.0811,2.0814,2.0805,2.0799,2.0809,2.0804,2.0805,2.0808,2.08,2.082,2.0814,2.0803,2.0787,2.0813,2.0822,2.0825,2.0775,2.0774,2.0774,2.0773,0,0,2.0845,2.0836,2.084,2.0838,2.0833,2.0837,2.0846,2.0847,2.0849,2.0848,2.0855,2.086,2.085,2.085,2.0841,2.0848,2.0871,2.0836,2.0835,2.0842,2.0892,2.09,2.0905,2.0864,2.0865,2.0865,2.0892,0,2.0875,2.0889,2.0878,2.0894,2.0899,2.0882,2.0889,2.0887,2.0881,2.0884,2.0878,2.0882,2.0868,2.0868,2.0874,2.0867,2.0881,2.0865,2.0869,2.087,2.087,2.0909,2.0918,2.0944,2.0896,2.0896,2.0897,0,2.0911,2.0911,2.0928,2.0921,2.0922,2.0929,2.0929,2.0932,2.0929,2.0924,2.0924,2.0913,2.092,2.0904,2.0914,2.0904,2.0905,2.0902,2.0902,2.0902,2.0884,2.0909,2.0952,2.0955,2.0902,2.0902,2.0901,0,2.0944,2.0948,2.0958,2.0957,2.095,2.0955,2.0952,2.0947,2.0948,2.0948,2.0948,2.0949,2.0949,2.095,2.094,2.0929,2.0951,2.0934,2.0946,2.0947,2.0951,2.0951,2.0994,2.0953,2.0953,2.0953,2.0953,0,2.0977,2.0988,2.0972,2.0979,2.099,2.0977,2.0988,2.0983,2.0979,2.0984,2.097,2.0975,2.0961,2.0964,2.0956,2.0965,2.0965,2.0961,2.0959,2.0962,2.0962,2.0962,2.0959,2.0954,2.0954,2.0954,2.0953,0,2.1015,2.1005,2.1015,2.1007,2.1005,2.1013,2.1006,2.1011,2.1004,2.101,2.1011,2.1,2.1003,2.0993,2.0994,2.0989,2.1002,2.0997,2.1003,2.1001,2.1013,2.1012,2.1057,2.1062,2.1019,2.102,2.102,0,2.1037,2.1044,2.1037,2.1039,2.1036,2.104,2.1041,2.1028,2.103,2.1026,2.1032,2.1033,2.1034,2.1039,2.1032,2.1032,2.1027,2.1042,2.1027,2.1029,2.1026,2.1025,2.1025,2.1045,2.1046,2.1046,2.1047,0,2.1076,2.1071,2.1072,2.1072,2.1074,2.1073,2.1072,2.1074,2.1061,2.1063,2.1066,2.1066,2.1067,2.1069,2.1068,2.1065,2.1053,2.1052,2.1055,2.1058,2.106,2.1058,2.1011,2.1051,2.105,2.105,2.105,2.105,2.1106,2.1111,2.1107,2.1109,2.1106,2.1105,2.1109,2.1103,2.1105,2.1105,2.1097,2.1101,2.1097,2.1095,2.1092,2.1095,2.1088,2.1092,2.1093,2.1094,2.1095,2.1061,2.1095,2.1095,2.1095,2.1095,2.1094,0,2.1143,2.114,2.1142,2.114,2.1141,2.1131,2.1128,2.113,2.1134,2.1131,2.1132,2.1135,2.1136,2.1128,2.1129,2.1132,2.1127,2.1133,2.1132,2.1131,2.1102,2.11,2.1137,2.1137,2.1137,2.1137,2.1137,2.1137,2.1163,2.1172,2.1166,2.1173,2.1169,2.1173,2.1172,2.1171,2.1168,2.1172,2.1173,2.1168,2.1163,2.1162,2.1163,2.1161,2.1161,2.1168,2.1164,2.1137,2.1133,2.1129,2.1126,2.1169,2.1169,2.1192,2.1193,2.1193]}]]